Location: Unspecified
(47.7670°N, 8.8522°E)
Time: 23:46:19
(UTC+01:00)

ISS - Pass Details

Date: 02 February 2019
Orbit: 403 x 411 km, 51.6° (Epoch: 20 February)

Event Time Altitude Azimuth Distance (km) Brightness Sun altitude
Rises 19:39:53 0° 292° (WNW) 2,339 1.2 -22.6°
Reaches altitude 10° 19:41:59 10° 295° (WNW) 1,478 -0.1 -22.9°
Enters shadow 19:44:10 37° 310° (NW) 655 -2.5 -23.3°
